Location: Unspecified
(58.9933°N, 5.6375°E)
Time: 15:58:33
(UTC+01:00)

Cosmos 2058 - Visible Passes

Search period start: 19 January 2017 00:00
Search period end: 29 January 2017 00:00
Orbit: 563 x 587 km, 82.5° (Epoch: 18 January)

Date Brightness Start Highest point End Pass type
(mag) Time Alt. Az. Time Alt. Az. Time Alt. Az.
19 Jan 5.1 04:54:51 23° E 04:54:51 23° E 04:57:03 10° SE visible
19 Jan 3.3 06:31:09 43° WSW 06:31:09 43° WSW 06:34:31 10° SSW visible
19 Jan 2.9 18:59:53 10° S 19:03:53 52° E 19:04:17 49° ENE visible
19 Jan 5.0 20:37:34 10° WSW 20:40:35 26° WNW 20:40:35 26° WNW visible
20 Jan 5.2 04:59:13 20° ESE 04:59:13 20° ESE 05:00:48 10° SE visible
20 Jan 4.0 06:35:31 27° SW 06:35:31 27° SW 06:37:48 10° SSW visible
20 Jan 4.8 17:29:57 10° E 17:31:12 11° ENE 17:32:27 10° ENE visible
20 Jan 2.8 19:03:16 10° S 19:07:19 65° E 19:08:47 37° NNE visible
20 Jan 5.1 20:41:24 10° WSW 20:44:41 23° WNW 20:45:05 22° NW visible
21 Jan 5.4 05:03:41 15° SE 05:03:41 15° SE 05:04:29 10° SE visible
21 Jan 4.8 06:39:59 16° SW 06:39:59 16° SW 06:41:02 10° SSW visible
21 Jan 4.6 17:32:25 10° ESE 17:34:31 14° E 17:36:37 10° NE visible
21 Jan 2.7 19:06:41 10° S 19:10:47 80° ESE 19:13:11 24° NNE visible
21 Jan 5.4 20:45:17 10° WSW 20:48:18 19° WNW 20:49:29 17° NW visible
22 Jan 4.4 17:35:13 10° ESE 17:37:51 17° E 17:40:29 10° NE visible
22 Jan 2.9 19:10:09 10° SSW 19:14:16 83° WNW 19:17:29 16° NNE visible
22 Jan 5.7 20:49:15 10° W 20:51:55 17° NW 20:53:46 13° NNW visible
23 Jan 4.2 17:38:11 10° SE 17:41:12 20° E 17:44:15 10° NE visible
23 Jan 3.2 19:13:40 10° SSW 19:17:45 67° WNW 19:21:39 11° N visible
23 Jan 5.9 20:53:19 10° W 20:55:33 14° NW 20:57:49 10° NNW visible
24 Jan 4.0 17:41:14 10° SE 17:44:34 24° E 17:47:55 10° NNE visible
24 Jan 3.6 19:17:14 10° SSW 19:21:16 54° WNW 19:25:19 10° N visible
24 Jan 6.0 20:57:33 10° WNW 20:59:13 12° NW 21:00:54 10° NNW visible
25 Jan 3.7 17:44:22 10° SSE 17:47:57 30° E 17:51:33 10° NNE visible
25 Jan 4.0 19:20:51 10° SW 19:24:48 44° WNW 19:28:46 10° N visible
25 Jan 6.1 21:02:14 10° NW 21:02:53 10° NW 21:03:32 10° NW visible
26 Jan 3.5 17:47:35 10° SSE 17:51:21 36° E 17:55:09 10° NNE visible
26 Jan 4.4 19:24:31 10° SW 19:28:20 36° WNW 19:32:10 10° N visible
27 Jan 3.2 17:50:51 10° SSE 17:54:46 45° E 17:58:42 10° NNE visible
27 Jan 4.8 19:28:14 10° SW 19:31:53 30° WNW 19:35:34 10° N visible
28 Jan 3.0 17:54:11 10° S 17:58:11 56° E 18:02:15 10° NNE visible
28 Jan 5.1 19:32:01 10° WSW 19:35:28 25° WNW 19:38:56 10° N visible
